This demonstration page uses our WeatherBlox Daily Observations layout. Learn more.

Left ArrowRight Arrow

Hourly Observations for December 23, 2021

Temp ( °F °C ) Dew Point ( °F °C ) Humidity (%) Winds ( mph kmh ) Pressure ( in mb ) Visibility ( mi km ) Precip ( " mm )
12:56 am 00:56 Mostly Cloudy 32 0.2 24 -4.3 72 72 Calm 29.81 1010 10 16 0.00 0.00
1:56 am 01:56 Clear 31 -0.6 25 -4.1 77 77 Calm 29.80 1009 10 16 0.00 0.00
2:56 am 02:56 Clear 30 -1.3 25 -4 82 82 Calm 29.79 1009 10 16 0.00 0.00
3:56 am 03:56 Clear 31 -0.8 26 -3.3 83 83 Calm 29.77 1008 10 16 0.00 0.00
4:56 am 04:56 Clear 29 -1.5 26 -3.5 86 86 Calm 29.75 1008 10 16 0.00 0.00
5:56 am 05:56 Clear 29 -1.4 26 -3.3 87 87 Calm 29.77 1008 10 16 0.00 0.00
6:56 am 06:56 Clear 30 -1.2 26 -3.1 87 87 Calm 29.79 1009 10 16 0.00 0.00
7:56 am 07:56 Mostly Cloudy 31 -0.3 26 -3.5 79 79 Calm 29.81 1009 10 16 0.00 0.00
8:56 am 08:56 Mostly Sunny 35 1.5 24 -4.2 66 66 WNW 5 7 29.82 1010 10 16 0.00 0.00
9:56 am 09:56 Mostly Sunny 39 4.1 28 -2.3 63 63 Calm 29.83 1010 10 16 0.00 0.00
10:56 am 10:56 Mostly Cloudy 45 7 25 -3.8 46 46 Calm 29.83 1010 10 16 0.00 0.00
11:56 am 11:56 Mostly Cloudy 47 8.6 23 -4.9 38 38 Calm 29.80 1009 10 16 0.00 0.00
12:56 pm 12:56 Mostly Cloudy 50 9.9 21 -6 32 32 Calm 29.79 1009 10 16 0.00 0.00
1:56 pm 13:56 Mostly Cloudy 50 9.8 22 -5.7 33 33 Calm 29.77 1008 10 16 0.00 0.00
2:56 pm 14:56 Mostly Cloudy 47 8.3 24 -4.2 41 41 Calm 29.78 1008 10 16 0.00 0.00
3:56 pm 15:56 Cloudy 47 8.3 22 -5.5 37 37 Calm 29.77 1008 10 16 0.00 0.00
4:56 pm 16:56 Cloudy 46 7.7 22 -5.4 39 39 Calm 29.77 1008 10 16 0.00 0.00
5:56 pm 17:56 Mostly Cloudy 41 5.1 24 -4.2 51 51 Calm 29.76 1008 10 16 0.00 0.00
6:56 pm 18:56 Mostly Cloudy 40 4.5 24 -4.3 53 53 S 3 6 29.74 1007 10 16 0.00 0.00
7:56 pm 19:56 Clear 41 5 23 -5.1 48 48 S 5 7 29.72 1006 10 16 0.00 0.00
8:56 pm 20:56 Clear 39 4.1 24 -4.6 54 54 Calm 29.68 1005 10 16 0.00 0.00
9:56 pm 21:56 Partly Cloudy 40 4.2 25 -3.8 56 56 SSE 3 6 29.67 1005 10 16 0.00 0.00
10:56 pm 22:56 Mostly Clear 39 4 28 -2 65 65 VRB 3 6 29.65 1004 10 16 0.00 0.00
11:56 pm 23:56 Clear 36 2.3 31 -0.3 83 83 SE 6 9 29.62 1003 10 16 0.00 0.00

Powered by AerisWeather